Theta_e
335 334 333 334 333 329 326 325 324 324 322 320 319 318 318 317 318 319 320 332 333 335 332 330 329 329 329 329 329 329 330 330 331 335 336 338 340 340 341 344 346 347 349
337 334 331 331 330 328 327 325 324 322 319 318 317 318 318 317 317 317 318 319 330 334 337 331 328 328 329 330 330 330 330 330 330 333 335 336 336 337 339 340 343 345 346
330 332 328 328 330 330 328 327 323 320 319 318 315 316 315 316 316 317 319 319 323 330 330 328 327 327 329 330 331 330 330 331 330 332 334 335 335 337 336 336 339 341 343
326 327 325 327 329 327 325 322 321 318 316 315 314 314 314 314 315 317 317 321 322 321 324 326 326 327 328 329 331 332 332 333 333 334 334 335 336 336 337 337 339 340 341
328 328 326 326 327 323 323 320 318 317 314 312 312 312 313 313 313 315 318 318 318 320 320 323 325 327 328 327 329 330 331 332 332 332 332 334 335 337 338 338 338 339 340
329 325 324 326 325 321 320 318 317 316 314 312 311 311 311 311 314 315 316 317 317 318 318 319 319 321 327 328 330 331 331 331 331 331 330 332 334 335 337 337 339 340 340
328 327 325 322 322 318 317 317 315 313 311 313 311 309 310 312 314 313 314 318 318 316 317 320 317 320 323 328 328 329 330 330 331 331 329 330 331 332 335 336 338 339 340
328 325 324 321 321 317 317 317 315 311 312 313 309 307 303 306 309 311 314 315 315 316 316 317 318 322 323 323 324 325 326 327 329 329 329 328 329 330 331 330 332 338 339
327 325 323 321 320 319 314 316 315 314 310 312 313 308 302 299 304 310 310 314 312 314 315 317 321 320 319 320 321 321 323 323 326 327 327 327 327 329 330 330 329 331 339
325 325 321 320 318 317 316 316 315 314 313 308 311 312 312 309 303 301 308 310 311 313 315 316 318 320 318 318 320 322 320 320 321 322 323 324 327 328 329 329 332 330 337
325 321 320 319 318 318 317 316 316 315 313 310 309 308 307 308 308 304 300 304 309 311 314 316 316 317 318 317 316 318 318 317 317 317 319 321 324 325 325 329 330 335 336
321 319 318 320 320 318 317 317 317 316 314 313 312 310 307 306 304 304 302 302 303 307 312 315 315 315 315 314 317 317 317 315 314 315 316 319 321 323 324 326 328 333 338
317 318 320 321 319 317 318 317 316 315 314 313 313 310 310 309 307 306 304 303 302 305 309 310 311 312 312 312 313 315 316 314 313 312 313 315 317 318 319 321 324 325 329
313 318 317 319 319 318 317 317 316 316 316 314 313 312 310 310 310 308 307 304 301 302 307 306 309 310 310 310 312 313 310 314 312 311 311 312 312 314 315 316 317 318 319
315 317 318 317 317 316 316 317 315 315 315 313 313 313 311 311 312 311 309 309 305 298 300 305 304 308 308 307 310 306 307 312 311 310 310 309 310 310 311 312 313 313 314
315 315 315 316 316 317 317 317 316 316 314 312 311 311 311 311 310 310 310 309 307 304 301 306 304 306 306 305 307 304 306 309 312 310 310 309 307 308 308 308 309 310 310
316 316 316 314 315 316 317 316 314 313 313 312 312 311 310 311 309 308 310 308 306 307 303 306 305 305 304 303 303 303 304 304 306 309 309 308 307 306 306 305 305 305 306
315 315 316 314 315 313 315 314 312 312 310 310 311 310 309 311 309 309 306 306 308 307 305 302 303 303 302 302 302 301 303 304 305 308 307 307 306 306 305 304 303 302 302
313 314 313 313 312 312 311 311 310 309 311 311 311 310 309 308 307 308 306 305 306 307 306 304 301 304 303 303 301 302 301 302 303 306 304 305 305 305 304 304 303 301 300
312 312 312 312 312 310 308 308 308 308 309 310 311 311 309 309 308 307 305 305 306 305 305 303 302 302 302 302 301 299 297 298 298 302 302 303 303 304 303 303 303 302 299
310 311 310 309 310 307 302 302 304 305 307 308 309 309 309 310 307 308 305 305 305 304 303 303 301 302 302 301 299 300 297 297 296 299 297 298 299 299 299 301 302 302 300
309 309 308 307 307 304 301 301 302 302 305 308 307 308 308 310 309 308 309 308 307 303 302 303 302 301 301 301 302 300 299 297 294 298 297 295 298 297 297 297 300 300 300
307 306 305 304 303 304 300 299 301 303 306 308 307 307 306 307 308 307 308 309 308 307 306 305 303 303 302 303 301 297 296 295 294 297 298 295 300 297 298 299 300 300 300
304 302 302 302 302 303 299 298 299 307 309 308 306 304 304 306 303 303 306 304 303 305 307 308 306 304 305 303 301 300 298 297 297 298 300 296 301 297 299 298 300 299 300
300 300 301 301 302 303 298 298 300 306 306 304 303 302 301 301 299 301 304 302 303 303 305 303 302 300 299 301 304 303 300 296 295 296 300 299 301 302 302 300 299 300 300
300 301 301 303 303 302 298 297 299 304 303 301 301 300 300 298 296 298 304 303 301 302 304 306 304 303 304 303 304 305 304 296 298 299 302 300 304 302 298 303 304 298 298
Wind_Speed
5 5 5 6 4 6 9 7 7 6 8 9 12 13 15 12 12 7 5 16 20 17 18 17 15 14 14 15 15 17 18 19 19 18 18 18 17 18 19 19 18 18 19
4 4 6 6 6 7 6 7 6 7 9 10 12 13 12 11 13 12 9 8 20 20 14 12 9 11 13 15 18 19 18 18 19 19 19 20 20 21 21 21 20 20 20
8 6 4 7 5 5 6 5 6 8 8 9 11 7 10 10 10 11 10 6 6 12 10 12 9 9 12 16 19 19 17 18 19 19 19 21 22 22 22 25 24 22 22
5 4 4 4 7 6 6 6 6 8 8 8 7 9 7 9 12 8 9 4 4 4 9 15 16 16 16 18 21 22 21 16 15 18 19 22 24 25 24 24 25 24 24
5 5 4 5 5 5 6 6 6 7 8 8 8 8 9 9 11 9 8 8 5 4 3 9 17 17 18 21 23 20 19 19 17 18 21 25 26 25 25 24 25 26 25
0 3 4 4 6 5 5 6 6 5 7 7 7 8 8 9 10 5 5 7 7 6 6 6 5 7 18 18 20 20 18 16 17 18 19 24 22 23 24 25 25 25 26
3 3 4 6 5 5 6 5 5 7 4 5 5 7 8 6 4 8 7 3 5 6 7 5 3 4 7 18 17 16 18 19 19 19 18 22 20 22 21 25 27 27 27
1 4 2 1 3 4 5 3 4 6 5 5 5 6 6 10 10 11 8 8 5 5 5 8 6 8 8 7 12 18 20 20 21 20 21 21 20 20 18 17 21 28 29
4 2 4 1 2 3 4 3 4 6 5 6 7 1 4 4 10 4 9 5 4 6 4 7 8 8 7 6 9 12 20 21 21 21 22 22 20 22 20 18 16 22 30
6 6 5 2 1 2 5 4 3 5 2 5 3 4 3 5 4 6 3 7 9 5 5 6 6 6 5 5 11 18 19 20 22 23 23 23 22 21 21 27 29 25 25
6 8 4 2 3 2 4 4 5 4 5 3 4 4 6 4 5 3 7 9 7 7 5 4 5 5 7 6 6 12 19 19 21 22 23 24 23 21 22 23 32 26 24
3 4 3 3 1 3 5 4 5 4 5 4 2 3 4 2 4 3 5 8 8 8 5 6 6 6 7 7 13 18 19 20 21 22 23 24 24 24 24 29 30 48 12
3 5 4 2 2 5 4 5 4 4 5 2 2 3 5 3 1 3 4 5 5 6 4 4 6 6 6 6 8 15 20 19 20 21 22 23 25 26 27 29 36 36 32
6 4 5 3 5 5 5 4 3 3 4 3 3 4 3 4 5 1 2 4 6 4 3 3 3 5 5 7 12 18 11 19 19 20 20 22 23 24 26 28 28 30 31
6 5 5 4 6 6 4 4 3 4 3 3 3 3 3 4 4 3 3 3 3 3 3 2 3 4 4 5 10 8 9 19 18 18 19 20 21 23 24 25 27 27 26
6 8 8 7 5 4 4 2 2 3 3 4 3 4 3 3 3 3 4 3 2 4 3 1 1 2 4 4 9 7 9 16 19 17 20 22 21 22 23 24 25 24 26
7 7 8 9 6 4 2 2 4 5 5 4 4 6 5 3 3 4 4 2 3 2 4 0 1 3 4 5 5 6 7 8 7 21 21 20 21 22 23 24 24 23 23
7 6 7 7 5 3 3 2 3 4 6 6 5 4 6 4 4 4 6 8 3 4 3 7 1 1 3 3 4 5 5 6 6 15 18 19 21 22 22 23 22 22 21
7 7 7 7 6 7 3 5 6 6 6 6 5 5 5 4 4 3 3 5 5 3 3 2 2 0 1 1 1 2 5 5 6 14 14 16 19 20 22 22 21 19 19
8 8 7 8 7 3 9 11 9 8 8 7 6 5 4 4 5 5 5 5 4 3 3 2 1 1 0 0 1 2 3 4 5 5 10 12 13 19 20 20 23 22 20
8 7 9 10 10 10 9 9 9 9 9 8 5 4 5 8 1 3 2 4 5 3 3 1 1 1 1 2 1 0 2 1 4 5 4 4 4 5 7 13 16 22 21
9 8 10 10 8 7 11 13 10 7 9 6 5 5 5 4 8 1 6 5 5 2 2 1 1 1 2 2 3 2 1 1 3 4 4 3 2 3 3 4 11 13 17
9 9 10 9 8 7 11 11 12 6 6 5 5 7 7 7 8 7 7 5 8 3 1 2 2 3 2 4 4 4 5 4 1 3 3 4 1 2 2 2 6 8 11
9 8 8 7 6 5 11 13 15 4 4 7 9 8 7 7 7 6 4 7 6 5 4 4 4 4 4 5 5 2 3 3 3 4 3 3 3 2 2 2 4 1 4
6 6 5 5 6 5 11 14 13 4 7 10 9 8 8 6 9 8 5 5 5 6 8 11 9 7 8 7 2 0 1 2 2 1 1 3 3 4 5 4 5 6 2
5 3 4 4 3 6 12 13 12 7 8 6 6 7 11 8 8 9 5 4 5 4 3 5 4 5 5 5 6 3 2 1 2 3 1 3 4 2 2 3 4 3 3
Wind_Direction
26 347 348 322 341 29 21 349 330 343 332 335 351 335 320 322 309 324 324 323 323 301 283 284 285 299 307 304 303 297 291 288 291 291 286 281 280 278 277 275 272 270 260
28 359 328 345 31 26 1 324 343 353 340 343 329 322 332 339 332 328 319 311 294 294 312 338 333 312 303 297 303 308 301 295 289 285 286 285 281 277 274 272 273 271 267
11 359 349 343 26 2 337 331 354 341 334 326 327 348 321 327 313 305 301 296 335 11 10 18 346 326 302 298 299 301 299 292 288 285 283 282 281 279 276 273 270 268 266
358 343 336 322 12 353 341 346 347 341 329 330 337 319 313 307 298 292 299 329 15 360 4 342 325 321 315 307 300 300 293 293 295 295 290 285 277 272 267 264 263 262 260
359 25 338 342 4 344 351 347 344 331 332 328 316 320 324 320 307 304 307 345 346 346 4 316 312 313 311 313 317 315 326 321 323 315 312 303 285 271 267 263 261 259 258
42 29 311 335 11 347 329 337 348 343 313 310 316 321 312 300 299 285 349 332 330 359 335 312 335 329 326 323 326 331 331 329 324 322 322 326 316 280 264 263 263 261 253
360 342 337 26 338 338 319 29 341 311 313 309 326 319 303 315 332 9 328 338 354 337 302 327 302 334 337 345 344 359 355 347 338 330 324 337 334 319 292 270 262 256 251
220 255 84 273 333 340 307 13 343 307 314 333 324 323 334 319 1 341 344 320 4 311 323 330 328 17 15 359 0 5 359 350 343 337 334 328 334 335 320 322 314 266 249
264 197 198 14 353 317 321 4 317 319 323 326 337 302 320 325 326 342 326 322 345 328 356 353 9 42 12 1 3 7 4 1 355 351 350 337 328 317 314 315 322 281 251
278 261 129 81 296 315 303 291 308 304 340 312 348 351 311 340 319 326 335 320 331 324 357 8 14 22 16 2 3 13 13 6 359 356 347 345 343 331 324 322 317 289 247
273 105 129 143 246 254 285 302 293 323 302 342 329 332 332 319 327 308 317 331 323 329 360 33 21 356 3 18 7 17 17 10 6 1 357 357 356 353 345 340 356 323 224
69 118 199 230 285 283 270 283 299 315 317 327 342 337 307 287 304 311 318 317 329 332 348 27 17 16 14 16 14 11 17 15 11 8 6 7 10 11 8 13 11 10 161
333 170 217 284 249 252 263 271 300 297 289 303 346 304 296 305 45 300 307 317 309 331 26 52 18 4 10 12 10 14 10 19 17 15 13 16 18 20 22 29 34 43 28
300 259 246 244 258 267 254 283 290 267 262 316 277 281 300 333 320 355 222 296 314 333 348 344 42 13 5 5 11 13 1 13 22 21 22 26 24 26 29 36 40 49 37
285 295 316 324 303 286 303 278 293 293 282 305 267 248 304 301 282 293 306 304 273 308 306 48 354 20 356 10 13 6 360 6 23 28 32 32 32 32 34 38 45 46 54
334 326 315 309 309 315 280 323 294 297 283 296 286 341 305 319 352 7 342 296 214 239 298 72 43 349 7 14 10 11 6 9 11 33 39 41 39 40 40 39 41 43 49
337 324 326 314 300 289 314 308 299 275 268 281 308 321 329 327 22 338 343 313 314 28 327 19 114 13 33 11 13 5 4 1 2 38 39 38 44 44 43 44 43 42 45
321 342 346 337 328 5 351 327 314 360 340 329 316 315 312 14 28 339 6 332 345 355 356 310 93 39 38 27 12 8 357 1 356 32 33 33 45 45 44 45 46 46 47
11 6 1 339 348 7 335 358 16 2 342 331 320 323 322 35 354 349 3 324 334 336 320 284 100 123 25 6 31 5 15 9 13 17 34 30 39 41 47 43 43 46 49
12 10 11 0 11 41 31 12 2 345 338 346 331 347 353 357 357 350 341 322 347 10 340 68 51 33 237 153 66 31 41 24 9 7 19 27 23 45 44 48 48 45 47
344 4 36 33 26 52 31 7 348 333 326 334 341 353 15 343 349 282 319 345 317 347 342 108 341 302 6 25 355 102 94 11 36 11 359 11 11 43 40 46 48 47 50
9 32 38 19 26 52 11 1 346 317 302 340 329 350 338 14 1 24 340 309 274 308 336 126 324 16 45 0 5 1 129 35 23 5 339 325 356 50 38 39 51 55 53
21 33 36 23 9 27 4 338 326 301 302 318 353 25 355 7 20 350 345 20 53 64 314 337 35 10 51 359 63 49 49 57 73 279 344 307 213 98 128 96 50 32 41
16 25 16 15 1 15 358 338 332 301 342 50 42 25 351 7 12 348 20 52 36 35 44 59 65 45 54 52 71 86 101 141 253 271 208 283 203 158 190 154 123 26 34
9 360 354 346 352 5 4 356 348 9 53 52 35 27 16 7 351 42 68 49 57 65 58 74 75 78 67 62 56 354 2 282 344 312 282 306 307 120 201 178 165 171 117
357 327 319 333 355 13 20 9 2 33 40 34 27 22 25 28 21 35 57 61 68 42 22 116 50 36 43 67 49 53 152 38 320 323 285 348 340 153 77 49 113 183 185